TimeEDT,TemperatureF,Dew PointF,Humidity,Sea Level PressureIn,VisibilityMPH,Wind Direction,Wind SpeedMPH,Gust SpeedMPH,PrecipitationIn,Events,Conditions,WindDirDegrees,DateUTC
12:53 AM,68.0,66.0,93,30.04,9.0,Calm,Calm,-,N/A,,Clear,0,2013-10-04 04:53:00
1:53 AM,64.9,64.0,97,30.05,5.0,Calm,Calm,-,N/A,,Clear,0,2013-10-04 05:53:00
2:03 AM,64.4,64.4,100,30.06,1.8,Calm,Calm,-,N/A,,Clear,0,2013-10-04 06:03:00
2:12 AM,64.4,62.6,94,30.06,3.0,Calm,Calm,-,N/A,,Clear,0,2013-10-04 06:12:00
2:53 AM,63.0,63.0,100,30.05,4.0,Calm,Calm,-,N/A,,Clear,0,2013-10-04 06:53:00
3:11 AM,62.6,60.8,94,30.06,1.8,Calm,Calm,-,N/A,,Clear,0,2013-10-04 07:11:00
3:13 AM,62.6,60.8,94,30.06,0.8,Calm,Calm,-,N/A,,Mist,0,2013-10-04 07:13:00
3:39 AM,62.6,62.6,100,30.05,1.2,Calm,Calm,-,N/A,,Partly Cloudy,0,2013-10-04 07:39:00
3:43 AM,62.6,62.6,100,30.05,2.0,Calm,Calm,-,N/A,,Partly Cloudy,0,2013-10-04 07:43:00
3:53 AM,61.0,61.0,100,30.04,2.0,Calm,Calm,-,N/A,,Clear,0,2013-10-04 07:53:00
4:00 AM,60.8,60.8,100,30.05,3.0,Calm,Calm,-,N/A,,Scattered Clouds,0,2013-10-04 08:00:00
4:05 AM,62.6,60.8,94,30.05,1.8,Calm,Calm,-,N/A,,Mostly Cloudy,0,2013-10-04 08:05:00
4:07 AM,62.6,60.8,94,30.05,0.8,Calm,Calm,-,N/A,,Mist,0,2013-10-04 08:07:00
4:29 AM,62.6,62.6,100,30.06,1.2,Calm,Calm,-,N/A,,Scattered Clouds,0,2013-10-04 08:29:00
4:32 AM,62.6,62.6,100,30.06,2.0,Calm,Calm,-,N/A,,Scattered Clouds,0,2013-10-04 08:32:00
4:41 AM,62.6,62.6,100,30.06,5.0,Calm,Calm,-,N/A,,Partly Cloudy,0,2013-10-04 08:41:00
4:51 AM,62.6,62.6,100,30.06,1.5,Calm,Calm,-,N/A,,Clear,0,2013-10-04 08:51:00
4:53 AM,63.0,63.0,100,30.05,1.2,Calm,Calm,-,N/A,,Clear,0,2013-10-04 08:53:00
5:19 AM,62.6,62.6,100,30.06,3.0,Calm,Calm,-,N/A,,Clear,0,2013-10-04 09:19:00
5:33 AM,62.6,60.8,94,30.06,1.5,Calm,Calm,-,N/A,,Clear,0,2013-10-04 09:33:00
5:41 AM,62.6,60.8,94,30.06,0.2,Calm,Calm,-,N/A,Fog,Fog,0,2013-10-04 09:41:00
5:53 AM,62.1,61.0,96,30.06,0.5,Calm,Calm,-,N/A,Fog,Fog,0,2013-10-04 09:53:00
6:09 AM,62.6,60.8,94,30.07,0.2,Calm,Calm,-,N/A,Fog,Fog,0,2013-10-04 10:09:00
6:44 AM,60.8,60.8,100,30.08,0.5,Calm,Calm,-,N/A,Fog,Fog,0,2013-10-04 10:44:00
6:49 AM,60.8,60.8,100,30.07,1.8,ESE,3.5,-,N/A,,Mostly Cloudy,110,2013-10-04 10:49:00
6:53 AM,61.0,60.1,97,30.06,2.0,ESE,3.5,-,N/A,,Mostly Cloudy,120,2013-10-04 10:53:00
7:27 AM,60.8,60.8,100,30.08,1.5,Calm,Calm,-,N/A,,Partly Cloudy,0,2013-10-04 11:27:00
7:53 AM,62.1,61.0,96,30.09,2.0,Calm,Calm,-,N/A,,Partly Cloudy,0,2013-10-04 11:53:00
8:02 AM,60.8,60.8,100,30.10,1.8,Calm,Calm,-,N/A,,Scattered Clouds,0,2013-10-04 12:02:00
8:32 AM,64.4,64.4,100,30.10,2.5,Calm,Calm,-,N/A,,Overcast,0,2013-10-04 12:32:00
8:40 AM,64.4,64.4,100,30.10,3.0,Calm,Calm,-,N/A,,Overcast,0,2013-10-04 12:40:00
8:53 AM,66.0,64.9,96,30.10,4.0,ESE,3.5,-,N/A,,Overcast,110,2013-10-04 12:53:00
9:53 AM,72.0,66.9,84,30.09,9.0,Calm,Calm,-,N/A,,Partly Cloudy,0,2013-10-04 13:53:00
10:53 AM,77.0,66.9,71,30.09,10.0,West,4.6,-,N/A,,Clear,260,2013-10-04 14:53:00
11:53 AM,80.1,68.0,67,30.09,10.0,Calm,Calm,-,N/A,,Partly Cloudy,0,2013-10-04 15:53:00
12:53 PM,82.0,68.0,62,30.08,10.0,Variable,5.8,-,N/A,,Clear,0,2013-10-04 16:53:00
1:53 PM,81.0,66.9,62,30.06,10.0,WSW,3.5,-,N/A,,Partly Cloudy,250,2013-10-04 17:53:00
2:53 PM,75.0,70.0,84,30.06,10.0,Variable,3.5,-,0.00,Rain,Light Rain,0,2013-10-04 18:53:00
3:53 PM,75.9,70.0,82,30.05,10.0,NE,3.5,-,0.00,Rain,Light Rain,40,2013-10-04 19:53:00
4:53 PM,80.1,70.0,71,30.03,10.0,Calm,Calm,-,0.00,,Clear,0,2013-10-04 20:53:00
5:53 PM,81.0,70.0,69,30.03,10.0,Calm,Calm,-,N/A,,Clear,0,2013-10-04 21:53:00
6:53 PM,77.0,66.9,71,30.03,10.0,SW,3.5,-,N/A,,Clear,220,2013-10-04 22:53:00
7:53 PM,70.0,66.0,87,30.05,10.0,Calm,Calm,-,N/A,,Clear,0,2013-10-04 23:53:00
8:53 PM,68.0,64.9,90,30.06,8.0,Calm,Calm,-,N/A,,Clear,0,2013-10-05 00:53:00
9:53 PM,66.0,64.0,93,30.06,6.0,Calm,Calm,-,N/A,,Mostly Cloudy,0,2013-10-05 01:53:00
10:53 PM,66.0,64.9,96,30.06,8.0,Calm,Calm,-,N/A,,Partly Cloudy,0,2013-10-05 02:53:00
11:53 PM,66.9,66.0,97,30.07,9.0,Calm,Calm,-,N/A,,Overcast,0,2013-10-05 03:53:00